Year,Month,Day,Hour,Minute,Value (Times are PST for temperature in C)
2013,06,29,00,00,15.70
2013,06,29,00,01,15.70
2013,06,29,00,02,15.70
2013,06,29,00,03,15.70
2013,06,29,00,04,15.70
2013,06,29,00,05,15.70
2013,06,29,00,06,15.70
2013,06,29,00,07,15.70
2013,06,29,00,08,15.70
2013,06,29,00,09,15.60
2013,06,29,00,10,15.60
2013,06,29,00,11,15.60
2013,06,29,00,12,15.60
2013,06,29,00,13,15.60
2013,06,29,00,14,15.60
2013,06,29,00,15,15.60
2013,06,29,00,16,15.50
2013,06,29,00,17,15.50
2013,06,29,00,18,15.50
2013,06,29,00,19,15.50
2013,06,29,00,20,15.60
2013,06,29,00,21,15.60
2013,06,29,00,22,15.60
2013,06,29,00,23,15.60
2013,06,29,00,24,15.60
2013,06,29,00,25,15.60
2013,06,29,00,26,15.60
2013,06,29,00,27,15.60
2013,06,29,00,28,15.50
2013,06,29,00,29,15.50
2013,06,29,00,30,15.50
2013,06,29,00,31,15.40
2013,06,29,00,32,15.40
2013,06,29,00,33,15.40
2013,06,29,00,34,15.40
2013,06,29,00,35,15.30
2013,06,29,00,36,15.30
2013,06,29,00,37,15.30
2013,06,29,00,38,15.30
2013,06,29,00,39,15.30
2013,06,29,00,40,15.30
2013,06,29,00,41,15.30
2013,06,29,00,42,15.20
2013,06,29,00,43,15.20
2013,06,29,00,44,15.20
2013,06,29,00,45,15.20
2013,06,29,00,46,15.20
2013,06,29,00,47,15.10
2013,06,29,00,48,15.10
2013,06,29,00,49,15.10
2013,06,29,00,50,15.10
2013,06,29,00,51,15.10
2013,06,29,00,52,15.10
2013,06,29,00,53,15.10
2013,06,29,00,54,15.00
2013,06,29,00,55,15.00
2013,06,29,00,56,15.00
2013,06,29,00,57,14.90
2013,06,29,00,58,14.90
2013,06,29,00,59,14.90
2013,06,29,01,00,14.90
2013,06,29,01,01,14.90
2013,06,29,01,02,14.90
2013,06,29,01,03,14.90
2013,06,29,01,04,14.90
2013,06,29,01,05,14.80
2013,06,29,01,06,14.80
2013,06,29,01,07,14.80
2013,06,29,01,08,14.80
2013,06,29,01,09,14.80
2013,06,29,01,10,14.90
2013,06,29,01,11,14.80
2013,06,29,01,12,14.80
2013,06,29,01,13,14.90
2013,06,29,01,14,14.90
2013,06,29,01,15,14.90
2013,06,29,01,16,14.90
2013,06,29,01,17,14.90
2013,06,29,01,18,14.90
2013,06,29,01,19,14.90
2013,06,29,01,20,14.90
2013,06,29,01,21,14.90
2013,06,29,01,22,14.90
2013,06,29,01,23,14.90
2013,06,29,01,24,14.90
2013,06,29,01,25,14.90
2013,06,29,01,26,14.90
2013,06,29,01,27,14.90
2013,06,29,01,28,14.90
2013,06,29,01,29,14.90
2013,06,29,01,30,14.90
2013,06,29,01,31,14.80
2013,06,29,01,32,14.80
2013,06,29,01,33,14.80
2013,06,29,01,34,14.80
2013,06,29,01,35,14.80
2013,06,29,01,36,14.80
2013,06,29,01,37,14.80
2013,06,29,01,38,14.80
2013,06,29,01,39,14.80
2013,06,29,01,40,14.90
2013,06,29,01,41,14.90
2013,06,29,01,42,14.90
2013,06,29,01,43,14.90
2013,06,29,01,44,14.80
2013,06,29,01,45,14.80
2013,06,29,01,46,14.80
2013,06,29,01,47,14.90
2013,06,29,01,48,14.90
2013,06,29,01,49,14.90
2013,06,29,01,50,14.90
2013,06,29,01,51,14.90
2013,06,29,01,52,14.90
2013,06,29,01,53,14.90
2013,06,29,01,54,14.90
2013,06,29,01,55,14.90
2013,06,29,01,56,14.90
2013,06,29,01,57,14.80
2013,06,29,01,58,14.80
2013,06,29,01,59,14.80
2013,06,29,02,00,14.80
2013,06,29,02,01,14.80
2013,06,29,02,02,14.90
2013,06,29,02,03,14.90
2013,06,29,02,04,14.90
2013,06,29,02,05,14.90
2013,06,29,02,06,14.90
2013,06,29,02,07,14.90
2013,06,29,02,08,14.90
2013,06,29,02,09,14.90
2013,06,29,02,10,14.90
2013,06,29,02,11,14.90
2013,06,29,02,12,14.90
2013,06,29,02,13,15.00
2013,06,29,02,14,15.00
2013,06,29,02,15,15.00
2013,06,29,02,16,15.00
2013,06,29,02,17,15.00
2013,06,29,02,18,15.00
2013,06,29,02,19,15.00
2013,06,29,02,20,15.00
2013,06,29,02,21,15.00
2013,06,29,02,22,15.00
2013,06,29,02,23,15.00
2013,06,29,02,24,15.00
2013,06,29,02,25,15.00
2013,06,29,02,26,15.00
2013,06,29,02,27,15.00
2013,06,29,02,28,15.00
2013,06,29,02,29,15.00
2013,06,29,02,30,14.90
2013,06,29,02,31,14.90
2013,06,29,02,32,14.90
2013,06,29,02,33,14.90
2013,06,29,02,34,14.90
2013,06,29,02,35,14.90
2013,06,29,02,36,14.90
2013,06,29,02,37,14.90
2013,06,29,02,38,14.90
2013,06,29,02,39,14.90
2013,06,29,02,40,14.90
2013,06,29,02,41,14.90
2013,06,29,02,42,14.90
2013,06,29,02,43,14.90
2013,06,29,02,44,14.90
2013,06,29,02,45,14.90
2013,06,29,02,46,14.90
2013,06,29,02,47,14.90
2013,06,29,02,48,14.90
2013,06,29,02,49,14.90
2013,06,29,02,50,14.90
2013,06,29,02,51,14.90
2013,06,29,02,52,14.90
2013,06,29,02,53,14.90
2013,06,29,02,54,14.90
2013,06,29,02,55,14.90
2013,06,29,02,56,14.90
2013,06,29,02,57,14.90
2013,06,29,02,58,14.90
2013,06,29,02,59,14.90
2013,06,29,03,00,14.90
2013,06,29,03,01,14.90
2013,06,29,03,02,14.90
2013,06,29,03,03,14.90
2013,06,29,03,04,14.90
2013,06,29,03,05,14.90
2013,06,29,03,06,14.90
2013,06,29,03,07,14.90
2013,06,29,03,08,14.90
2013,06,29,03,09,14.90
2013,06,29,03,10,14.90
2013,06,29,03,11,14.90
2013,06,29,03,12,14.90
2013,06,29,03,13,15.00
2013,06,29,03,14,15.00
2013,06,29,03,15,15.00
2013,06,29,03,16,15.00
2013,06,29,03,17,14.90
2013,06,29,03,18,14.90
2013,06,29,03,19,14.90
2013,06,29,03,20,14.90
2013,06,29,03,21,14.90
2013,06,29,03,22,14.90
2013,06,29,03,23,14.90
2013,06,29,03,24,14.90
2013,06,29,03,25,14.90
2013,06,29,03,26,14.90
2013,06,29,03,27,14.90
2013,06,29,03,28,14.90
2013,06,29,03,29,14.90
2013,06,29,03,30,14.90
2013,06,29,03,31,14.90
2013,06,29,03,32,14.80
2013,06,29,03,33,14.80
2013,06,29,03,34,14.80
2013,06,29,03,35,14.80
2013,06,29,03,36,14.80
2013,06,29,03,37,14.80
2013,06,29,03,38,14.80
2013,06,29,03,39,14.80
2013,06,29,03,40,14.80
2013,06,29,03,41,14.80
2013,06,29,03,42,14.80
2013,06,29,03,43,14.80
2013,06,29,03,44,14.80
2013,06,29,03,45,14.80
2013,06,29,03,46,14.80
2013,06,29,03,47,14.80
2013,06,29,03,48,14.80
2013,06,29,03,49,14.80
2013,06,29,03,50,14.80
2013,06,29,03,51,14.80
2013,06,29,03,52,14.80
2013,06,29,03,53,14.80
2013,06,29,03,54,14.80
2013,06,29,03,55,14.80
2013,06,29,03,56,14.80
2013,06,29,03,57,14.80
2013,06,29,03,58,14.80
2013,06,29,03,59,14.80
2013,06,29,04,00,14.80
2013,06,29,04,01,14.80
2013,06,29,04,02,14.80
2013,06,29,04,03,14.80
2013,06,29,04,04,14.80
2013,06,29,04,05,14.80
2013,06,29,04,06,14.80
2013,06,29,04,07,14.80
2013,06,29,04,08,14.80
2013,06,29,04,09,14.80
2013,06,29,04,10,14.80
2013,06,29,04,11,14.80
2013,06,29,04,12,14.80
2013,06,29,04,13,14.80
2013,06,29,04,14,14.70
2013,06,29,04,15,14.70
2013,06,29,04,16,14.70
2013,06,29,04,17,14.70
2013,06,29,04,18,14.70
2013,06,29,04,19,14.70
2013,06,29,04,20,14.70
2013,06,29,04,21,14.70
2013,06,29,04,22,14.70
2013,06,29,04,23,14.70
2013,06,29,04,24,14.70
2013,06,29,04,25,14.70
2013,06,29,04,26,14.70
2013,06,29,04,27,14.70
2013,06,29,04,28,14.70
2013,06,29,04,29,14.70
2013,06,29,04,30,14.60
2013,06,29,04,31,14.60
2013,06,29,04,32,14.60
2013,06,29,04,33,14.60
2013,06,29,04,34,14.60
2013,06,29,04,35,14.60
2013,06,29,04,36,14.60
2013,06,29,04,37,14.60
2013,06,29,04,38,14.60
2013,06,29,04,39,14.60
2013,06,29,04,40,14.60
2013,06,29,04,41,14.60
2013,06,29,04,42,14.60
2013,06,29,04,43,14.60
2013,06,29,04,44,14.60
2013,06,29,04,45,14.60
2013,06,29,04,46,14.60
2013,06,29,04,47,14.60
2013,06,29,04,48,14.60
2013,06,29,04,49,14.60
2013,06,29,04,50,14.60
2013,06,29,04,51,14.60
2013,06,29,04,52,14.60
2013,06,29,04,53,14.60
2013,06,29,04,54,14.60
2013,06,29,04,55,14.60
2013,06,29,04,56,14.60
2013,06,29,04,57,14.60
2013,06,29,04,58,14.70
2013,06,29,04,59,14.70
2013,06,29,05,00,14.70
2013,06,29,05,01,14.70
2013,06,29,05,02,14.70
2013,06,29,05,03,14.70
2013,06,29,05,04,14.70
2013,06,29,05,05,14.70
2013,06,29,05,06,14.70
2013,06,29,05,07,14.70
2013,06,29,05,08,14.70
2013,06,29,05,09,14.70
2013,06,29,05,10,14.70
2013,06,29,05,11,14.70
2013,06,29,05,12,14.70
2013,06,29,05,13,14.70
2013,06,29,05,14,14.70
2013,06,29,05,15,14.70
2013,06,29,05,16,14.70
2013,06,29,05,17,14.70
2013,06,29,05,18,14.70
2013,06,29,05,19,14.70
2013,06,29,05,20,14.70
2013,06,29,05,21,14.70
2013,06,29,05,22,14.70
2013,06,29,05,23,14.70
2013,06,29,05,24,14.70
2013,06,29,05,25,14.70
2013,06,29,05,26,14.80
2013,06,29,05,27,14.70
2013,06,29,05,28,14.70
2013,06,29,05,29,14.70
2013,06,29,05,30,14.70
2013,06,29,05,31,14.70
2013,06,29,05,32,14.70
2013,06,29,05,33,14.70
2013,06,29,05,34,14.70
2013,06,29,05,35,14.70
2013,06,29,05,36,14.70
2013,06,29,05,37,14.70
2013,06,29,05,38,14.70
2013,06,29,05,39,14.70
2013,06,29,05,40,14.80
2013,06,29,05,41,14.80
2013,06,29,05,42,14.80
2013,06,29,05,43,14.80
2013,06,29,05,44,14.80
2013,06,29,05,45,14.80
2013,06,29,05,46,14.80
2013,06,29,05,47,14.80
2013,06,29,05,48,14.80
2013,06,29,05,49,14.80
2013,06,29,05,50,14.80
2013,06,29,05,51,14.80
2013,06,29,05,52,14.80
2013,06,29,05,53,14.80
2013,06,29,05,54,14.80
2013,06,29,05,55,14.80
2013,06,29,05,56,14.80
2013,06,29,05,57,14.80
2013,06,29,05,58,14.80
2013,06,29,05,59,14.80
2013,06,29,06,00,14.80
2013,06,29,06,01,14.80
2013,06,29,06,02,14.80
2013,06,29,06,03,14.80
2013,06,29,06,04,14.80
2013,06,29,06,05,14.80
2013,06,29,06,06,14.80
2013,06,29,06,07,14.80
2013,06,29,06,08,14.80
2013,06,29,06,09,14.80
2013,06,29,06,10,14.80
2013,06,29,06,11,14.80
2013,06,29,06,12,14.80
2013,06,29,06,13,14.80
2013,06,29,06,14,14.80
2013,06,29,06,15,14.80
2013,06,29,06,16,14.90
2013,06,29,06,17,14.90
2013,06,29,06,18,14.90
2013,06,29,06,19,14.90
2013,06,29,06,20,15.00
2013,06,29,06,21,15.00
2013,06,29,06,22,15.00
2013,06,29,06,23,15.00
2013,06,29,06,24,15.10
2013,06,29,06,25,15.10
2013,06,29,06,26,15.10
2013,06,29,06,27,15.20
2013,06,29,06,28,15.20
2013,06,29,06,29,15.20
2013,06,29,06,30,15.20
2013,06,29,06,31,15.30
2013,06,29,06,32,15.30
2013,06,29,06,33,15.30
2013,06,29,06,34,15.40
2013,06,29,06,35,15.40
2013,06,29,06,36,15.40
2013,06,29,06,37,15.40
2013,06,29,06,38,15.50
2013,06,29,06,39,15.50
2013,06,29,06,40,15.50
2013,06,29,06,41,15.60
2013,06,29,06,42,15.60
2013,06,29,06,43,15.60
2013,06,29,06,44,15.60
2013,06,29,06,45,15.70
2013,06,29,06,46,15.70
2013,06,29,06,47,15.70
2013,06,29,06,48,15.70
2013,06,29,06,49,15.70
2013,06,29,06,50,15.70
2013,06,29,06,51,15.70
2013,06,29,06,52,15.70
2013,06,29,06,53,15.70
2013,06,29,06,54,15.60
2013,06,29,06,55,15.60
2013,06,29,06,56,15.70
2013,06,29,06,57,15.70
2013,06,29,06,58,15.70
2013,06,29,06,59,15.70
2013,06,29,07,00,15.70
2013,06,29,07,01,15.70
2013,06,29,07,02,15.70
2013,06,29,07,03,15.80
2013,06,29,07,04,15.80
2013,06,29,07,05,15.90
2013,06,29,07,06,16.00
2013,06,29,07,07,16.00
2013,06,29,07,08,16.10
2013,06,29,07,09,16.20
2013,06,29,07,10,16.30
2013,06,29,07,11,16.40
2013,06,29,07,12,16.40
2013,06,29,07,13,16.50
2013,06,29,07,14,16.60
2013,06,29,07,15,16.70
2013,06,29,07,16,16.80
2013,06,29,07,17,16.90
2013,06,29,07,18,17.00
2013,06,29,07,19,17.00
2013,06,29,07,20,17.00
2013,06,29,07,21,17.00
2013,06,29,07,22,16.90
2013,06,29,07,23,16.90
2013,06,29,07,24,16.80
2013,06,29,07,25,16.80
2013,06,29,07,26,16.70
2013,06,29,07,27,16.80
2013,06,29,07,28,16.80
2013,06,29,07,29,16.80
2013,06,29,07,30,16.90
2013,06,29,07,31,16.90
2013,06,29,07,32,17.00
2013,06,29,07,33,17.00
2013,06,29,07,34,17.10
2013,06,29,07,35,17.20
2013,06,29,07,36,17.20
2013,06,29,07,37,17.40
2013,06,29,07,38,17.50
2013,06,29,07,39,17.60
2013,06,29,07,40,17.70
2013,06,29,07,41,17.80
2013,06,29,07,42,17.80
2013,06,29,07,43,17.90
2013,06,29,07,44,17.90
2013,06,29,07,45,18.00
2013,06,29,07,46,18.10
2013,06,29,07,47,18.20
2013,06,29,07,48,18.10
2013,06,29,07,49,18.10
2013,06,29,07,50,18.10
2013,06,29,07,51,18.20
2013,06,29,07,52,18.20
2013,06,29,07,53,18.30
2013,06,29,07,54,18.30
2013,06,29,07,55,18.40
2013,06,29,07,56,18.50
2013,06,29,07,57,18.50
2013,06,29,07,58,18.50
2013,06,29,07,59,18.40
2013,06,29,08,00,18.40
2013,06,29,08,01,18.40
2013,06,29,08,02,18.40
2013,06,29,08,03,18.50
2013,06,29,08,04,18.50
2013,06,29,08,05,18.40
2013,06,29,08,06,18.40
2013,06,29,08,07,18.50
2013,06,29,08,08,18.60
2013,06,29,08,09,18.70
2013,06,29,08,10,18.70
2013,06,29,08,11,18.80
2013,06,29,08,12,18.80
2013,06,29,08,13,18.90
2013,06,29,08,14,18.90
2013,06,29,08,15,19.00
2013,06,29,08,16,19.10
2013,06,29,08,17,19.10
2013,06,29,08,18,19.10
2013,06,29,08,19,19.10
2013,06,29,08,20,19.10
2013,06,29,08,21,19.10
2013,06,29,08,22,19.10
2013,06,29,08,23,19.10
2013,06,29,08,24,19.10
2013,06,29,08,25,19.10
2013,06,29,08,26,19.20
2013,06,29,08,27,19.10
2013,06,29,08,28,19.10
2013,06,29,08,29,19.00
2013,06,29,08,30,19.00
2013,06,29,08,31,19.00
2013,06,29,08,32,18.90
2013,06,29,08,33,18.90
2013,06,29,08,34,18.90
2013,06,29,08,35,18.90
2013,06,29,08,36,18.90
2013,06,29,08,37,19.00
2013,06,29,08,38,19.10
2013,06,29,08,39,19.10
2013,06,29,08,40,19.10
2013,06,29,08,41,19.20
2013,06,29,08,42,19.20
2013,06,29,08,43,19.10
2013,06,29,08,44,19.00
2013,06,29,08,45,19.00
2013,06,29,08,46,18.90
2013,06,29,08,47,18.80
2013,06,29,08,48,18.80
2013,06,29,08,49,18.80
2013,06,29,08,50,18.70
2013,06,29,08,51,18.70
2013,06,29,08,52,18.70
2013,06,29,08,53,18.80
2013,06,29,08,54,18.80
2013,06,29,08,55,18.80
2013,06,29,08,56,18.90
2013,06,29,08,57,18.90
2013,06,29,08,58,18.90
2013,06,29,08,59,18.90
2013,06,29,09,00,18.90
2013,06,29,09,01,19.00
2013,06,29,09,02,19.00
2013,06,29,09,03,19.10
2013,06,29,09,04,19.10
2013,06,29,09,05,19.20
2013,06,29,09,06,19.20
2013,06,29,09,07,19.30
2013,06,29,09,08,19.30
2013,06,29,09,09,19.40
2013,06,29,09,10,19.40
2013,06,29,09,11,19.50
2013,06,29,09,12,19.50
2013,06,29,09,13,19.60
2013,06,29,09,14,19.70
2013,06,29,09,15,19.80
2013,06,29,09,16,19.90
2013,06,29,09,17,19.90
2013,06,29,09,18,19.90
2013,06,29,09,19,19.90
2013,06,29,09,20,19.90
2013,06,29,09,21,19.80
2013,06,29,09,22,19.70
2013,06,29,09,23,19.60
2013,06,29,09,24,19.50
2013,06,29,09,25,19.40
2013,06,29,09,26,19.40
2013,06,29,09,27,19.40
2013,06,29,09,28,19.40
2013,06,29,09,29,19.50
2013,06,29,09,30,19.70
2013,06,29,09,31,19.80
2013,06,29,09,32,20.00
2013,06,29,09,33,20.20
2013,06,29,09,34,20.30
2013,06,29,09,35,20.30
2013,06,29,09,36,20.30
2013,06,29,09,37,20.20
2013,06,29,09,38,20.10
2013,06,29,09,39,20.10
2013,06,29,09,40,20.10
2013,06,29,09,41,20.00
2013,06,29,09,42,19.90
2013,06,29,09,43,19.80
2013,06,29,09,44,19.80
2013,06,29,09,45,19.80
2013,06,29,09,46,19.70
2013,06,29,09,47,19.70
2013,06,29,09,48,19.80
2013,06,29,09,49,19.80
2013,06,29,09,50,19.80
2013,06,29,09,51,19.80
2013,06,29,09,52,19.70
2013,06,29,09,53,19.70
2013,06,29,09,54,19.70
2013,06,29,09,55,19.70
2013,06,29,09,56,19.70
2013,06,29,09,57,19.70
2013,06,29,09,58,19.60
2013,06,29,09,59,19.70
2013,06,29,10,00,19.70
2013,06,29,10,01,19.80
2013,06,29,10,02,19.80
2013,06,29,10,03,19.80
2013,06,29,10,04,19.80
2013,06,29,10,05,19.80
2013,06,29,10,06,19.80
2013,06,29,10,07,19.80
2013,06,29,10,08,19.80
2013,06,29,10,09,19.90
2013,06,29,10,10,20.00
2013,06,29,10,11,20.00
2013,06,29,10,12,20.10
2013,06,29,10,13,20.20
2013,06,29,10,14,20.20
2013,06,29,10,15,20.30
2013,06,29,10,16,20.30
2013,06,29,10,17,20.40
2013,06,29,10,18,20.50
2013,06,29,10,19,20.50
2013,06,29,10,20,20.60
2013,06,29,10,21,20.60
2013,06,29,10,22,20.50
2013,06,29,10,23,20.40
2013,06,29,10,24,20.30
2013,06,29,10,25,20.20
2013,06,29,10,26,20.10
2013,06,29,10,27,20.00
2013,06,29,10,28,19.90
2013,06,29,10,29,19.90
2013,06,29,10,30,19.90
2013,06,29,10,31,19.90
2013,06,29,10,32,20.00
2013,06,29,10,33,20.00
2013,06,29,10,34,20.00
2013,06,29,10,35,20.00
2013,06,29,10,36,20.00
2013,06,29,10,37,19.90
2013,06,29,10,38,19.80
2013,06,29,10,39,19.80
2013,06,29,10,40,19.80
2013,06,29,10,41,19.80
2013,06,29,10,42,19.80
2013,06,29,10,43,19.80
2013,06,29,10,44,19.70
2013,06,29,10,45,19.70
2013,06,29,10,46,19.80
2013,06,29,10,47,19.80
2013,06,29,10,48,19.80
2013,06,29,10,49,19.80
2013,06,29,10,50,19.70
2013,06,29,10,51,19.60
2013,06,29,10,52,19.60
2013,06,29,10,53,19.60
2013,06,29,10,54,19.60
2013,06,29,10,55,19.60
2013,06,29,10,56,19.60
2013,06,29,10,57,19.50
2013,06,29,10,58,19.50
2013,06,29,10,59,19.50
2013,06,29,11,00,19.50
2013,06,29,11,01,19.50
2013,06,29,11,02,19.60
2013,06,29,11,03,19.60
2013,06,29,11,04,19.60
2013,06,29,11,05,19.70
2013,06,29,11,06,19.70
2013,06,29,11,07,19.70
2013,06,29,11,08,19.80
2013,06,29,11,09,19.90
2013,06,29,11,10,19.90
2013,06,29,11,11,20.00
2013,06,29,11,12,20.10
2013,06,29,11,13,20.10
2013,06,29,11,14,20.20
2013,06,29,11,15,20.30
2013,06,29,11,16,20.30
2013,06,29,11,17,20.40
2013,06,29,11,18,20.40
2013,06,29,11,19,20.50
2013,06,29,11,20,20.60
2013,06,29,11,21,20.60
2013,06,29,11,22,20.60
2013,06,29,11,23,20.60
2013,06,29,11,24,20.60
2013,06,29,11,25,20.60
2013,06,29,11,26,20.60
2013,06,29,11,27,20.60
2013,06,29,11,28,20.70
2013,06,29,11,29,20.70
2013,06,29,11,30,20.70
2013,06,29,11,31,20.70
2013,06,29,11,32,20.70
2013,06,29,11,33,20.70
2013,06,29,11,34,20.70
2013,06,29,11,35,20.70
2013,06,29,11,36,20.70
2013,06,29,11,37,20.70
2013,06,29,11,38,20.70
2013,06,29,11,39,20.60
2013,06,29,11,40,20.60
2013,06,29,11,41,20.60
2013,06,29,11,42,20.60
2013,06,29,11,43,20.70
2013,06,29,11,44,20.70
2013,06,29,11,45,20.70
2013,06,29,11,46,20.70
2013,06,29,11,47,20.80
2013,06,29,11,48,20.80
2013,06,29,11,49,20.90
2013,06,29,11,50,20.90
2013,06,29,11,51,20.90
2013,06,29,11,52,20.90
2013,06,29,11,53,20.90
2013,06,29,11,54,20.90
2013,06,29,11,55,20.90
2013,06,29,11,56,20.90
2013,06,29,11,57,20.90
2013,06,29,11,58,21.00
2013,06,29,11,59,21.00
2013,06,29,12,00,21.10
2013,06,29,12,01,21.10
2013,06,29,12,02,21.10
2013,06,29,12,03,21.10
2013,06,29,12,04,21.10
2013,06,29,12,05,21.10
2013,06,29,12,06,21.10
2013,06,29,12,07,21.10
2013,06,29,12,08,21.10
2013,06,29,12,09,21.10
2013,06,29,12,10,21.10
2013,06,29,12,11,21.10
2013,06,29,12,12,21.10
2013,06,29,12,13,21.20
2013,06,29,12,14,21.20
2013,06,29,12,15,21.20
2013,06,29,12,16,21.20
2013,06,29,12,17,21.20
2013,06,29,12,18,21.20
2013,06,29,12,19,21.20
2013,06,29,12,20,21.30
2013,06,29,12,21,21.40
2013,06,29,12,22,21.40
2013,06,29,12,23,21.50
2013,06,29,12,24,21.60
2013,06,29,12,25,21.70
2013,06,29,12,26,21.70
2013,06,29,12,27,21.80
2013,06,29,12,28,21.80
2013,06,29,12,29,21.90
2013,06,29,12,30,21.90
2013,06,29,12,31,22.00
2013,06,29,12,32,22.10
2013,06,29,12,33,22.10
2013,06,29,12,34,22.10
2013,06,29,12,35,22.10
2013,06,29,12,36,22.10
2013,06,29,12,37,22.10
2013,06,29,12,38,22.10
2013,06,29,12,39,22.20
2013,06,29,12,40,22.30
2013,06,29,12,41,22.30
2013,06,29,12,42,22.40
2013,06,29,12,43,22.50
2013,06,29,12,44,22.60
2013,06,29,12,45,22.60
2013,06,29,12,46,22.70
2013,06,29,12,47,22.80
2013,06,29,12,48,22.80
2013,06,29,12,49,22.80
2013,06,29,12,50,22.70
2013,06,29,12,51,22.70
2013,06,29,12,52,22.70
2013,06,29,12,53,22.60
2013,06,29,12,54,22.50
2013,06,29,12,55,22.40
2013,06,29,12,56,22.40
2013,06,29,12,57,22.40
2013,06,29,12,58,22.30
2013,06,29,12,59,22.30
2013,06,29,13,00,22.20
2013,06,29,13,01,22.20
2013,06,29,13,02,22.20
2013,06,29,13,03,22.20
2013,06,29,13,04,22.20
2013,06,29,13,05,22.20
2013,06,29,13,06,22.20
2013,06,29,13,07,22.10
2013,06,29,13,08,22.10
2013,06,29,13,09,22.10
2013,06,29,13,10,22.20
2013,06,29,13,11,22.20
2013,06,29,13,12,22.20
2013,06,29,13,13,22.20
2013,06,29,13,14,22.30
2013,06,29,13,15,22.30
2013,06,29,13,16,22.40
2013,06,29,13,17,22.40
2013,06,29,13,18,22.40
2013,06,29,13,19,22.30
2013,06,29,13,20,22.30
2013,06,29,13,21,22.30
2013,06,29,13,22,22.30
2013,06,29,13,23,22.30
2013,06,29,13,24,22.40
2013,06,29,13,25,22.40
2013,06,29,13,26,22.50
2013,06,29,13,27,22.60
2013,06,29,13,28,22.60
2013,06,29,13,29,22.70
2013,06,29,13,30,22.80
2013,06,29,13,31,22.90
2013,06,29,13,32,22.90
2013,06,29,13,33,22.90
2013,06,29,13,34,22.80
2013,06,29,13,35,22.80
2013,06,29,13,36,22.70
2013,06,29,13,37,22.60
2013,06,29,13,38,22.60
2013,06,29,13,39,22.50
2013,06,29,13,40,22.40
2013,06,29,13,41,22.40
2013,06,29,13,42,22.40
2013,06,29,13,43,22.40
2013,06,29,13,44,22.40
2013,06,29,13,45,22.40
2013,06,29,13,46,22.50
2013,06,29,13,47,22.50
2013,06,29,13,48,22.60
2013,06,29,13,49,22.60
2013,06,29,13,50,22.60
2013,06,29,13,51,22.60
2013,06,29,13,52,22.70
2013,06,29,13,53,22.70
2013,06,29,13,54,22.80
2013,06,29,13,55,22.80
2013,06,29,13,56,22.80
2013,06,29,13,57,22.90
2013,06,29,13,58,22.90
2013,06,29,13,59,22.90
2013,06,29,14,00,22.90
2013,06,29,14,01,22.90
2013,06,29,14,02,22.90
2013,06,29,14,03,22.90
2013,06,29,14,04,23.00
2013,06,29,14,05,22.90
2013,06,29,14,06,22.90
2013,06,29,14,07,22.90
2013,06,29,14,08,22.80
2013,06,29,14,09,22.70
2013,06,29,14,10,22.60
2013,06,29,14,11,22.40
2013,06,29,14,12,22.30
2013,06,29,14,13,22.20
2013,06,29,14,14,22.10
2013,06,29,14,15,22.00
2013,06,29,14,16,22.00
2013,06,29,14,17,21.90
2013,06,29,14,18,21.80
2013,06,29,14,19,21.70
2013,06,29,14,20,21.70
2013,06,29,14,21,21.70
2013,06,29,14,22,21.70
2013,06,29,14,23,21.70
2013,06,29,14,24,21.80
2013,06,29,14,25,21.80
2013,06,29,14,26,21.90
2013,06,29,14,27,21.90
2013,06,29,14,28,22.00
2013,06,29,14,29,22.00
2013,06,29,14,30,22.10
2013,06,29,14,31,22.20
2013,06,29,14,32,22.20
2013,06,29,14,33,22.20
2013,06,29,14,34,22.30
2013,06,29,14,35,22.30
2013,06,29,14,36,22.20
2013,06,29,14,37,22.20
2013,06,29,14,38,22.10
2013,06,29,14,39,22.00
2013,06,29,14,40,21.90
2013,06,29,14,41,21.90
2013,06,29,14,42,21.80
2013,06,29,14,43,21.90
2013,06,29,14,44,21.90
2013,06,29,14,45,22.00
2013,06,29,14,46,22.10
2013,06,29,14,47,22.10
2013,06,29,14,48,22.20
2013,06,29,14,49,22.10
2013,06,29,14,50,22.00
2013,06,29,14,51,21.80
2013,06,29,14,52,21.70
2013,06,29,14,53,21.50
2013,06,29,14,54,21.40
2013,06,29,14,55,21.30
2013,06,29,14,56,21.30
2013,06,29,14,57,21.30
2013,06,29,14,58,21.30
2013,06,29,14,59,21.40
2013,06,29,15,00,21.40
2013,06,29,15,01,21.50
2013,06,29,15,02,21.50
2013,06,29,15,03,21.60
2013,06,29,15,04,21.60
2013,06,29,15,05,21.70
2013,06,29,15,06,21.70
2013,06,29,15,07,21.70
2013,06,29,15,08,21.80
2013,06,29,15,09,22.00
2013,06,29,15,10,22.10
2013,06,29,15,11,22.20
2013,06,29,15,12,22.30
2013,06,29,15,13,22.40
2013,06,29,15,14,22.50
2013,06,29,15,15,22.60
2013,06,29,15,16,22.70
2013,06,29,15,17,22.70
2013,06,29,15,18,22.80
2013,06,29,15,19,22.80
2013,06,29,15,20,22.80
2013,06,29,15,21,22.80
2013,06,29,15,22,22.80
2013,06,29,15,23,22.80
2013,06,29,15,24,22.80
2013,06,29,15,25,22.80
2013,06,29,15,26,22.80
2013,06,29,15,27,22.80
2013,06,29,15,28,22.80
2013,06,29,15,29,22.80
2013,06,29,15,30,22.90
2013,06,29,15,31,22.90
2013,06,29,15,32,22.90
2013,06,29,15,33,23.00
2013,06,29,15,34,23.10
2013,06,29,15,35,23.20
2013,06,29,15,36,23.20
2013,06,29,15,37,23.30
2013,06,29,15,38,23.40
2013,06,29,15,39,23.50
2013,06,29,15,40,23.60
2013,06,29,15,41,23.70
2013,06,29,15,42,23.80
2013,06,29,15,43,24.00
2013,06,29,15,44,24.10
2013,06,29,15,45,24.20
2013,06,29,15,46,24.30
2013,06,29,15,47,24.30
2013,06,29,15,48,24.50
2013,06,29,15,49,24.60
2013,06,29,15,50,24.70
2013,06,29,15,51,24.80
2013,06,29,15,52,24.90
2013,06,29,15,53,24.90
2013,06,29,15,54,24.90
2013,06,29,15,55,24.80
2013,06,29,15,56,24.60
2013,06,29,15,57,24.40
2013,06,29,15,58,24.30
2013,06,29,15,59,24.10
2013,06,29,16,00,24.00
2013,06,29,16,01,23.90
2013,06,29,16,02,23.90
2013,06,29,16,03,23.90
2013,06,29,16,04,24.00
2013,06,29,16,05,24.00
2013,06,29,16,06,24.10
2013,06,29,16,07,24.20
2013,06,29,16,08,24.20
2013,06,29,16,09,24.30
2013,06,29,16,10,24.20
2013,06,29,16,11,24.20
2013,06,29,16,12,24.10
2013,06,29,16,13,24.10
2013,06,29,16,14,24.00
2013,06,29,16,15,23.80
2013,06,29,16,16,23.70
2013,06,29,16,17,23.60
2013,06,29,16,18,23.50
2013,06,29,16,19,23.50
2013,06,29,16,20,23.40
2013,06,29,16,21,23.40
2013,06,29,16,22,23.30
2013,06,29,16,23,23.30
2013,06,29,16,24,23.30
2013,06,29,16,25,23.30
2013,06,29,16,26,23.30
2013,06,29,16,27,23.30
2013,06,29,16,28,23.40
2013,06,29,16,29,23.50
2013,06,29,16,30,23.60
2013,06,29,16,31,23.70
2013,06,29,16,32,23.80
2013,06,29,16,33,24.00
2013,06,29,16,34,24.10
2013,06,29,16,35,24.20
2013,06,29,16,36,24.30
2013,06,29,16,37,24.30
2013,06,29,16,38,24.30
2013,06,29,16,39,24.30
2013,06,29,16,40,24.30
2013,06,29,16,41,24.20
2013,06,29,16,42,24.10
2013,06,29,16,43,24.10
2013,06,29,16,44,24.10
2013,06,29,16,45,24.10
2013,06,29,16,46,24.10
2013,06,29,16,47,24.10
2013,06,29,16,48,24.20
2013,06,29,16,49,24.20
2013,06,29,16,50,24.20
2013,06,29,16,51,24.30
2013,06,29,16,52,24.30
2013,06,29,16,53,24.30
2013,06,29,16,54,24.30
2013,06,29,16,55,24.30
2013,06,29,16,56,24.30
2013,06,29,16,57,24.30
2013,06,29,16,58,24.30
2013,06,29,16,59,24.20
2013,06,29,17,00,24.20
2013,06,29,17,01,24.20
2013,06,29,17,02,24.10
2013,06,29,17,03,24.10
2013,06,29,17,04,24.10
2013,06,29,17,05,24.00
2013,06,29,17,06,24.00
2013,06,29,17,07,24.00
2013,06,29,17,08,24.00
2013,06,29,17,09,24.00
2013,06,29,17,10,24.10
2013,06,29,17,11,24.10
2013,06,29,17,12,24.20
2013,06,29,17,13,24.30
2013,06,29,17,14,24.40
2013,06,29,17,15,24.60
2013,06,29,17,16,24.70
2013,06,29,17,17,24.80
2013,06,29,17,18,24.90
2013,06,29,17,19,25.00